(2017 FM101) |
Classification: Apollo [NEO] SPK-ID: 3772983 |
[ hide orbit diagram ]
For accurate long-term ephemerides, please instead use our Horizons system.This orbit viewer was implemented using two-body methods, and hence should not be used for determining accurate long-term trajectories (over several years or decades) or planetary encounter circumstances.
Orbital Elements at Epoch 2459000.5 (2020-May-31.0) TDB
Reference: JPL 7 (heliocentric ecliptic J2000)
Element | Value | Uncertainty (1-sigma) | Units |
e | .372070139740019 | 0.00061057 | |
a | 1.465014931705749 | 0.0012625 | au |
q | .9199266213447765 | 0.00010172 | au |
i | 1.380092631369516 | 0.0018321 | deg |
node | 189.1445781590961 | 0.00080987 | deg |
peri | 53.94387302089805 | 0.0029475 | deg |
M | 259.0802302047102 | 0.79595 | deg |
tp | 2459182.066304376060 (2020-Nov-28.56630438) | 1.6667 | TDB |
period | 647.6815167926807 1.77 | 0.83725 0.002292 | d yr |
n | .5558287378381898 | 0.00071852 | deg/d |
Q | 2.010103242066721 | 0.0017323 | au |
|
| | Orbit Determination Parameters
Additional Information
|
[ show covariance matrix ]
Physical Parameter Table
Parameter |
Symbol |
Value |
Units |
Sigma |
Reference |
Notes |
absolute magnitude |
H |
26.6 |
|
n/a |
MPO405722 |
|
|
[ show close-approach data ]
|